THOR ABLESTAR DEB, 299

Orbit data source: Space-Track

THOR ABLESTAR DEB, 299 is space debris in LEO originally from a launch on Thu, 29 Jun 1961 UTC launched from the Air Force Eastern Test Range (AFETR). Debris objects in space refer to the collection of defunct objects orbiting the Earth. Examples of debris include non-operational satellites, rocket bodies, and fragments generated from explosions, collisions, or faulty payload assembly.

Loading next visibility...
Identifier
299, 1961-015CQ
Orbit
LEO
Country
Flag of USUS
Related business
Manufacturer
Unknown
Mission
Spacecraft
Bus & Motor
Unknown
Mass
Unknown
Launch date (UTC)
1961-06-29 (64 years ago)
Launch vehicle
Unknown
Launch site
Air Force Eastern Test Range (AFETR)
Object type
Payload
Rocket body
Debris
Shape & HBR
Unknown shape, 0.1 m
Radar Cross Section
Small (<0.1 m²)

Expand to show TLE details & history
Last TLE update: 1 day ago

TLE from 1 day ago
0 THOR ABLESTAR DEB
1 00299U 61015CQ  25305.04900902  .00000133  00000-0  20760-3 0  9997
2 00299  67.1673 203.1466 0187427 108.1575 254.0003 13.68883856197838
Epoch: 2025-11-01T01:10Z
TLE epoch observation values (Epoch: 2025-11-01T01:10:34.379Z)
Latitude
0.00004°
Longitude
144.9187°
Altitude
1,046.181 km
Speed
7.309 km/s
True Right ascension
13h 32m 35s
True Declination
0° 00' 00"
Sunlit
Object was in daylight at epoch
Visualization orbit readout
Latitude
Unknown
Longitude
Unknown
Altitude
Unknown
Speed
Unknown
Apparent Right ascension
Unknown
Apparent Declination
Unknown
Sunlit
N/A
Visualization observer readout
Local Sidereal Time
03:59:38
Azimuth
Unknown
Elevation
Unknown
Doppler factor
Unknown
Orbital elements
Apogee altitude
1,140.272 km
Perigee altitude
863.626 km
Semi-major axis
7,380.086 km
Eccentricity
0.01874
Inclination
67.1673°
RAAN
203.1466°
Arg. of periapsis
108.1575°
True anomaly
251.94943°
Mean anomaly
254.0003°
Eccentric anomaly
252.97349°
Mean motion
3.42335 °/min
Orbital period
105.16 mins
BSTAR
0.0002076
Loading maneuver chart data...
Computing Atmospheric mass density...

Documentation

Showing up to 5 results
|